Location: Feydey
(46.3431°N, 7.0106°E)
Time: 14:43:29
(UTC+00:00)

Cosmos 1452 Rocket - Pass Details

Date: 20 June 2021
Orbit: 768 x 774 km, 74.1° (Epoch: 03 August)

Event Time Altitude Azimuth Distance (km) Brightness Sun altitude
Rises 20:11:34 0° 206° (SSW) 3,237 6.6 -6.6°
Reaches altitude 10° 20:13:57 10° 209° (SSW) 2,314 5.8 -6.9°
Maximum altitude 20:19:12 71° 293° (WNW) 817 3.9 -7.5°
Drops below altitude 10° 20:24:29 10° 18° (NNE) 2,327 6.4 -8.1°
Sets 20:26:53 0° 21° (NNE) 3,257 7.1 -8.4°
